2024/02/02 00:00:00,24.8, 0.5
2024/02/02 00:10:00,24.8,-0.1
2024/02/02 00:20:00,24.8, 0.1
2024/02/02 00:30:00,24.7,-0.2
2024/02/02 00:40:00,24.7,-0.2
2024/02/02 00:50:00,24.7,-0.2
2024/02/02 01:00:00,24.7,-0.0
2024/02/02 01:10:00,24.7,-0.4
2024/02/02 01:20:00,24.7,-0.6
2024/02/02 01:30:00,24.7,-0.3
2024/02/02 01:40:00,24.8,-0.2
2024/02/02 01:50:00,24.8,-0.2
2024/02/02 02:00:00,24.8,-0.4
2024/02/02 02:10:00,24.8,-0.6
2024/02/02 02:20:00,24.8,-0.6
2024/02/02 02:30:00,24.7,-0.4
2024/02/02 02:40:00,24.7,-1.0
2024/02/02 02:50:00,24.7,-0.9
2024/02/02 03:00:00,24.7,-0.7
2024/02/02 03:10:00,24.7,-0.7
2024/02/02 03:20:00,24.7,-0.6
2024/02/02 03:30:00,24.8,-0.5
2024/02/02 03:40:00,24.7,-0.6
2024/02/02 03:50:00,24.7,-0.5
2024/02/02 04:00:00,24.7,-0.6
2024/02/02 04:10:00,24.7,-0.5
2024/02/02 04:20:00,24.7,-0.6
2024/02/02 04:30:00,24.7,-0.6
2024/02/02 04:40:00,24.6,-0.7
2024/02/02 04:50:00,24.6,-0.6
2024/02/02 05:00:00,24.6,-0.7
2024/02/02 05:10:00,24.6,-0.7
2024/02/02 05:20:00,24.6,-0.7
2024/02/02 05:30:00,24.6,-0.5
2024/02/02 05:40:00,24.6,-0.9
2024/02/02 05:50:00,24.6,-0.7
2024/02/02 06:00:00,24.6,-0.7
2024/02/02 06:10:00,24.5,-0.6
2024/02/02 06:20:00,24.5,-0.7
2024/02/02 06:30:00,24.5,-0.3
2024/02/02 06:40:00,24.5,-0.9
2024/02/02 06:50:00,24.5,-0.7
2024/02/02 07:00:00,24.4,-0.5
2024/02/02 07:10:00,24.4,-0.9
2024/02/02 07:20:00,24.5,-0.4
2024/02/02 07:30:00,24.5,-0.3
2024/02/02 07:40:00,24.5,-0.5
2024/02/02 07:50:00,24.4,-0.5
2024/02/02 08:00:00,24.5,-0.2
2024/02/02 08:10:00,24.5, 0.1
2024/02/02 08:20:00,24.5, 0.2
2024/02/02 08:30:00,24.6, 0.3
2024/02/02 08:40:00,24.5, 0.6
2024/02/02 08:50:00,24.6, 0.5
2024/02/02 09:00:00,24.7, 0.9
2024/02/02 09:10:00,24.7, 0.9
2024/02/02 09:20:00,24.8, 1.0
2024/02/02 09:30:00,24.7, 0.5
2024/02/02 09:40:00,24.8, 0.7
2024/02/02 09:50:00,24.8, 1.7
2024/02/02 10:00:00,24.9, 2.6
2024/02/02 10:10:00,24.7, 2.7
2024/02/02 10:20:00,24.7, 2.9
2024/02/02 10:30:00,24.7, 2.6
2024/02/02 10:40:00,24.7, 2.9
2024/02/02 10:50:00,24.6, 3.0
2024/02/02 11:00:00,24.7, 3.3
2024/02/02 11:10:00,24.6, 3.0
2024/02/02 11:20:00,24.7, 3.2
2024/02/02 11:30:00,24.8, 4.3
2024/02/02 11:40:00,24.9, 4.2
2024/02/02 11:50:00,25.1, 6.1
2024/02/02 12:00:00,24.8, 6.1
2024/02/02 12:10:00,25.0, 7.2
2024/02/02 12:20:00,25.1, 8.3
2024/02/02 12:30:00,24.8, 7.1
2024/02/02 12:40:00,24.3, 7.3
2024/02/02 12:50:00,24.7, 9.5
2024/02/02 13:00:00,24.4, 7.8
2024/02/02 13:10:00,24.1, 8.2
2024/02/02 13:20:00,23.7, 7.2
2024/02/02 13:30:00,23.7, 9.6
2024/02/02 13:40:00,23.4, 7.7
2024/02/02 13:50:00,23.9, 9.8
2024/02/02 14:00:00,24.1,11.6
2024/02/02 14:10:00,23.3, 7.6
2024/02/02 14:20:00,23.5, 9.5
2024/02/02 14:30:00,24.0, 9.3
2024/02/02 14:40:00,23.9, 8.6
2024/02/02 14:50:00,23.9, 6.2
2024/02/02 15:00:00,23.0, 5.4
2024/02/02 15:10:00,22.8, 5.3
2024/02/02 15:20:00,23.1, 6.0
2024/02/02 15:30:00,23.2, 7.2
2024/02/02 15:40:00,23.0, 5.8
2024/02/02 15:50:00,23.0, 8.5
2024/02/02 16:00:00,22.8, 6.8
2024/02/02 16:10:00,22.9, 8.4
2024/02/02 16:20:00,22.9, 5.9
2024/02/02 16:30:00,22.8, 5.1
2024/02/02 16:40:00,22.7, 2.9
2024/02/02 16:50:00,22.7, 2.4
2024/02/02 17:00:00,22.7, 1.8
2024/02/02 17:10:00,22.6, 1.8
2024/02/02 17:20:00,22.5, 1.1
2024/02/02 17:30:00,22.5, 1.0
2024/02/02 17:40:00,22.5, 0.4
2024/02/02 17:50:00,22.5, 0.7
2024/02/02 18:00:00,22.4, 0.4
2024/02/02 18:10:00,22.3, 0.4
2024/02/02 18:20:00,22.3, 0.4
2024/02/02 18:30:00,22.3, 0.4
2024/02/02 18:40:00,22.4, 0.4
2024/02/02 18:50:00,22.3, 0.4
2024/02/02 19:00:00,22.3, 0.8
2024/02/02 19:10:00,22.2, 0.6
2024/02/02 19:20:00,22.3, 0.9
2024/02/02 19:30:00,22.2, 0.8
2024/02/02 19:40:00,22.2, 0.8
2024/02/02 19:50:00,22.2, 0.8
2024/02/02 20:00:00,22.1, 0.8
2024/02/02 20:10:00,22.0, 1.0
2024/02/02 20:20:00,22.0, 0.7
2024/02/02 20:30:00,22.1, 0.3
2024/02/02 20:40:00,22.1, 0.4
2024/02/02 20:50:00,22.0, 0.2
2024/02/02 21:00:00,22.1, 0.6
2024/02/02 21:10:00,22.1, 0.5
2024/02/02 21:20:00,22.0, 0.7
2024/02/02 21:30:00,22.1, 1.1
2024/02/02 21:40:00,22.2, 1.0
2024/02/02 21:50:00,22.1, 1.0
2024/02/02 22:00:00,22.1, 1.2
2024/02/02 22:10:00,22.0, 1.2
2024/02/02 22:20:00,22.1, 1.1
2024/02/02 22:30:00,22.1, 1.1
2024/02/02 22:40:00,22.1, 1.2
2024/02/02 22:50:00,22.2, 1.0
2024/02/02 23:00:00,22.2, 1.1
2024/02/02 23:10:00,22.2, 1.0
2024/02/02 23:20:00,22.3, 1.2
2024/02/02 23:30:00,22.3, 1.5
2024/02/02 23:40:00,22.2, 1.5
2024/02/02 23:50:00,22.2, 1.2
